Location: Villoslada
(40.9911°N, 4.4195°W)
Time: 14:35:32
(UTC+00:00)

Daily predictions for brighter satellites

Satellite Brightness Start Highest point End
(mag) Time Altitude Azimuth Time Altitude Azimuth Time Altitude Azimuth
CZ-4B R/B 4.3 17:15:41 10° ESE 17:19:33 21° ENE 17:23:25 10° NNE
Sich 1 3.5 17:15:39 10° N 17:19:42 39° ENE 17:23:45 10° SSE
NOSS 3-1 (A) 4.3 17:13:15 10° NW 17:21:01 87° WSW 17:29:58 10° SSE
SL-08 R/B 3.8 17:16:53 10° N 17:21:31 61° WNW 17:26:02 10° SSW
NOAA 6 4.2 17:17:23 10° SE 17:22:20 50° ENE 17:27:17 10° N
ATLAS 5 CENTAUR R/B 4.0 17:18:04 10° NW 17:23:16 17° N 17:26:04 10° NE
Cosmos 1805 Rocket 3.5 17:22:47 10° N 17:27:06 62° E 17:31:23 10° SSE
Cosmos 1340 Rocket 3.8 17:24:10 10° NNW 17:28:08 53° W 17:32:06 10° S
Cosmos 2360 4.2 17:22:36 10° NNW 17:28:23 81° ENE 17:34:05 10° SSE
SL-24 R/B - RUBIN 2 3.9 17:24:48 10° NNW 17:29:06 43° NE 17:33:13 10° SE
Cosmos 540 Rocket 3.6 17:28:20 10° SSW 17:33:25 76° WNW 17:38:34 10° NNE
Cosmos 858 Rocket 4.5 17:31:30 10° NNW 17:36:49 77° ENE 17:42:04 10° SSE
Lacrosse 5 rocket 2.9 17:34:19 10° NNW 17:37:03 18° NNE 17:39:14 12° ENE
Cosmos 1666 3.4 17:37:50 10° NNE 17:41:07 29° ENE 17:44:23 10° SE
Cosmos 1428 Rocket 4.5 17:42:17 10° N 17:48:27 88° E 17:54:38 10° S
Meteor 1-26 Rocket 4.4 17:42:49 10° S 17:48:48 90° WNW 17:54:53 10° N
COSMOS 2455 3.2 17:43:32 10° SW 17:49:31 69° WNW 17:55:34 10° NNE
Cosmos 1092 Rocket 4.2 17:43:21 10° N 17:49:43 80° W 17:56:01 10° S
PSLV R/B 3.7 17:48:41 10° SSE 17:52:17 57° ENE 17:55:58 10° N
Cosmos 1814 Rocket 3.9 17:49:35 10° SSW 17:54:48 77° ESE 18:00:00 10° NNE
Cosmos 921 Rocket 3.7 17:51:41 10° SSE 17:55:22 31° E 17:57:55 17° NE
Cosmos 1570 Rocket 4.0 17:50:43 10° S 17:55:55 68° ESE 18:01:07 10° NNE
Cosmos 1697 Rocket 3.6 17:53:21 10° NNW 17:58:47 52° WSW 18:04:11 10° S
Cosmos 2322 Rocket 3.5 17:55:08 10° N 17:59:06 19° NE 18:00:16 18° ENE
Cosmos 1980 Rocket 2.2 17:58:31 10° NNW 18:04:13 88° ENE 18:09:50 10° SSE
COSMO-SKYMED 1 2.9 18:00:04 10° NNE 18:04:15 44° E 18:08:23 10° S
CZ-4C R/B 3.0 17:57:17 10° NNW 18:04:37 65° NE 18:13:05 10° SE
Cosmos 1812 2.7 18:00:48 10° S 18:04:38 88° W 18:08:31 10° N
Cosmos 1633 Rocket 3.0 18:04:24 10° N 18:08:44 61° E 18:13:04 10° SSE
Cosmos 2142 Rocket 4.4 18:02:46 10° S 18:08:55 84° E 18:15:11 10° N
Cosmos 2369 4.2 18:05:26 10° NNW 18:11:07 64° WSW 18:16:44 10° S
Cosmos 1151 Rocket 3.0 18:07:18 10° S 18:11:37 86° W 18:16:01 10° N
Cosmos 2279 Rocket 3.9 18:05:57 10° S 18:12:10 84° E 18:18:24 10° N
CZ-2C R/B 2.8 18:08:34 10° SW 18:12:13 27° SSE 18:14:25 17° ESE
Cosmos 1818 3.8 18:10:44 10° NNW 18:16:01 46° NE 18:20:30 14° ESE
Aureole 3 Rocket 4.3 18:13:19 10° SE 18:16:26 25° E 18:16:26 25° E
SMAP 4.3 18:12:49 10° S 18:17:15 44° W 18:21:43 10° NNW
CZ-4C R/B 4.3 18:18:38 22° SE 18:18:38 22° SE 18:20:29 10° SSE
Cosmos 2082 Rocket 3.0 18:12:59 10° SW 18:18:30 50° WNW 18:24:00 10° NNE
SL-16 R/B 2.8 18:13:32 10° N 18:18:38 33° ENE 18:21:04 23° E
Meteor 1-5 Rocket 4.3 18:12:44 10° N 18:18:45 81° E 18:24:35 10° SSE
Cosmos 2266 Rocket 4.3 18:13:29 10° N 18:19:37 45° ENE 18:25:43 10° SSE
USA 267 4.1 18:19:25 15° NE 18:24:33 43° NNW 18:30:37 10° W
ARGOS 3.1 18:21:19 10° SSE 18:26:39 63° ENE 18:31:59 10° N
Landsat 5 3.4 18:25:10 31° NE 18:26:48 53° E 18:30:39 10° S
SKYMED 3 4.5 18:24:18 12° NNE 18:28:25 84° ESE 18:32:45 10° SSW
MOS 1-B 4.5 18:22:40 10° SSE 18:28:26 79° WSW 18:34:15 10° NNW
Meteor 2-15 4.3 18:23:12 10° S 18:29:15 71° E 18:35:19 10° NNE
X-37B 1.1 18:27:14 10° SW 18:29:43 41° S 18:29:43 41° S
Cosmos 2208 Rocket 4.3 18:27:15 10° SSW 18:32:38 73° WNW 18:37:42 12° NNE
Okean O Rocket 1.5 18:28:23 10° SSE 18:32:48 69° ENE 18:37:15 10° N
Cosmos 2278 3.9 18:28:41 10° NNW 18:34:24 75° WSW 18:40:02 10° SSE
Cosmos 1328 Rocket 3.9 18:31:08 10° SSW 18:35:32 67° W 18:39:59 10° N
Cosmos 44 Rocket 3.2 18:31:12 10° NNW 18:36:04 63° NE 18:38:14 31° SE
Cosmos 1666 Rocket 4.4 18:32:05 10° NNW 18:36:24 52° W 18:40:39 10° S
Cosmos 1867 3.9 18:32:34 10° S 18:37:40 43° ESE 18:38:42 39° E
H-2A R/B 2.6 18:34:24 10° S 18:39:30 59° W 18:44:30 10° NNW
Cosmos 2150 Rocket 4.0 18:34:27 10° NNW 18:39:34 57° ENE 18:44:43 10° SSE
Cosmos 1470 Rocket 3.4 18:35:26 10° N 18:39:54 78° E 18:44:23 10° S
USA 306 4.5 18:36:58 10° NNW 18:39:36 21° N 18:39:36 21° N
ISS -3.2 18:37:18 10° WNW 18:40:38 56° SW 18:41:23 43° S
USA 32 4.0 18:42:16 10° S 18:47:23 60° E 18:49:26 35° NNE
CZ-2C R/B 3.0 18:45:36 10° N 18:50:43 62° WNW 18:55:48 10° SSW
Cosmos 1125 Rocket 3.4 18:46:25 10° NNW 18:51:39 67° ENE 18:54:40 26° SE
ATLAS CENTAUR R/B 4.2 18:46:23 10° W 18:52:08 21° NW 18:54:28 15° N
SKYMED 2 4.3 18:48:31 13° N 18:52:18 52° WNW 18:56:31 10° SSW
Spot 2 4.4 18:49:47 10° SSE 18:54:49 58° ENE 18:59:51 10° N
Meteor 1-27 Rocket 3.5 18:49:28 10° S 18:54:56 67° E 18:56:41 43° NNE
USA 234 3.4 18:50:03 10° SE 18:56:35 73° SW 19:03:08 10° NW
CZ-4B R/B 3.8 18:54:24 10° S 18:59:42 54° W 19:04:57 10° NNW
APEX 3.8 18:58:23 10° SW 19:02:04 50° WNW 19:02:04 50° WNW
NOSS 3-3 (A) 3.9 18:58:23 10° SSW 19:03:44 54° ESE 19:03:44 54° ESE
NOSS 3-3 (C) 3.9 18:58:30 10° SSW 19:03:48 53° ESE 19:03:48 53° ESE
Cosmos 1655 Rocket 4.1 18:59:55 10° N 19:06:18 76° W 19:12:37 10° S
Lacrosse 5 rocket 2.6 19:12:32 10° NW 19:14:52 34° NW 19:14:52 34° NW
DEBRIS 4.1 19:15:36 10° WSW 19:16:59 34° WSW 19:16:59 34° WSW
Cosmos 2360 Rocket 3.7 19:16:58 10° NNW 19:19:09 23° N 19:19:09 23° N
Cosmos 2322 Rocket 2.9 19:38:03 10° NNW 19:42:10 48° NW 19:42:10 48° NW
CZ-2C R/B 4.0 19:47:29 10° WSW 19:48:35 16° WSW 19:48:35 16° WSW
SL-16 R/B 3.5 19:57:35 10° NW 20:02:43 36° WSW 20:03:05 36° WSW
